DL1BWU Weather Reports


time (UTC)temp
C
wind
direction
speed
KPH
gust
KPH
rain 1hr
cm
rain 24hr
cm
rain mn
cm
humidity
%
barometer
mb
20260507060503 7 135 0.0 0.0 0.00 0.97 0.00 72 1012.3
20260507055503 7 157 0.0 0.0 0.00 1.07 0.00 72 1012.1
20260507054504 7 67 0.0 0.0 0.00 1.07 0.00 72 1011.9
20260507053503 7 90 0.0 0.0 0.00 1.07 0.00 72 1012.0
20260507052503 7 112 0.0 0.0 0.00 1.07 0.00 72 1011.9
20260507051504 7 225 0.0 0.0 0.00 1.07 0.00 72 1011.9
20260507050504 7 22 0.0 0.0 0.00 1.07 0.00 72 1011.7
20260507045504 6 135 0.0 0.0 0.00 1.27 0.00 72 1011.7
20260507044504 6 202 0.0 0.0 0.00 1.27 0.00 72 1011.6
20260507043504 6 67 0.0 0.0 0.00 1.27 0.00 72 1011.6
20260507042504 6 45 0.0 0.0 0.00 1.27 0.00 72 1011.2
20260507041504 6 45 0.0 0.0 0.00 1.27 0.00 72 1011.2
20260507040504 6 135 0.0 0.0 0.00 1.27 0.00 73 1011.1
20260507035504 6 112 0.0 0.0 0.00 1.50 0.00 73 1011.1
20260507034504 6 67 0.0 0.0 0.00 1.50 0.00 73 1011.0
20260507033504 6 67 0.0 0.0 0.00 1.50 0.00 72 1011.0
20260507032504 6 337 0.0 0.0 0.00 1.50 0.00 73 1011.0
20260507031504 6 45 0.0 0.0 0.00 1.50 0.00 73 1011.0
20260507030504 6 112 0.0 0.0 0.00 1.50 0.00 73 1010.8
20260507025504 7 180 0.0 0.0 0.00 1.91 0.00 72 1010.8
20260507024504 7 90 0.0 0.0 0.00 1.91 0.00 72 1010.9
20260507023504 7 157 0.0 0.0 0.00 1.91 0.00 72 1010.8
20260507022504 7 157 0.0 0.0 0.00 1.91 0.00 72 1010.7
20260507021504 7 157 0.0 0.0 0.00 1.91 0.00 72 1010.7
20260507020504 7 22 0.0 0.0 0.00 1.91 0.00 72 1010.7
20260507015504 7 45 0.0 0.0 0.00 2.16 0.00 72 1010.7
20260507014504 7 135 0.0 0.0 0.00 2.16 0.00 72 1010.5
20260507013504 7 45 0.0 0.0 0.00 2.16 0.00 72 1010.4
20260507012504 7 67 0.0 0.0 0.00 2.16 0.00 72 1010.4
20260507011504 7 135 0.0 0.0 0.00 2.16 0.00 72 1010.4
20260507010504 7 22 0.0 0.0 0.00 2.16 0.00 72 1010.2
20260507005504 7 135 0.0 0.0 0.00 2.16 0.00 72 1010.0
20260507004504 7 135 0.0 0.0 0.00 2.16 0.00 72 1009.9
20260507003504 7 112 0.0 0.0 0.00 2.16 0.00 72 1009.8
20260507002504 7 112 0.0 0.0 0.00 2.16 0.00 72 1009.8
20260507001504 7 112 0.0 0.0 0.00 2.16 0.00 72 1009.7
20260507000505 7 112 0.0 0.0 0.00 2.16 0.00 72 1009.7
20260506235504 7 90 0.0 0.0 0.00 2.16 0.00 72 1010.0
20260506234504 7 67 0.0 0.0 0.00 2.16 0.00 72 1010.0
20260506233504 7 112 0.0 0.0 0.00 2.16 0.00 72 1010.0
20260506232504 7 180 0.0 0.0 0.00 2.16 0.00 72 1009.9
20260506231504 7 22 0.0 0.0 0.00 2.16 0.00 72 1009.8
20260506230504 7 67 0.0 0.0 0.00 2.16 0.00 72 1009.8
20260506225504 7 157 0.0 0.0 0.00 2.16 0.00 72 1009.5
20260506224558 7 67 0.0 0.0 0.00 2.16 0.00 72 1009.5
20260506224504 7 67 0.0 0.0 0.00 2.16 0.00 72 1009.5
20260506223504 7 112 0.0 0.0 0.00 2.16 0.00 72 1009.4
20260506222504 7 135 0.0 0.0 0.00 2.16 0.00 72 1009.4
20260506221504 7 112 0.0 0.0 0.00 2.16 0.00 72 1009.5
20260506220504 7 112 0.0 0.0 0.00 2.16 0.00 72 1009.5
20260506215504 8 90 0.0 0.0 0.00 2.16 0.00 72 1009.6
20260506214504 8 22 0.0 0.0 0.00 2.16 0.00 72 1009.6
20260506213504 8 292 0.0 0.0 0.00 2.16 0.00 72 1009.4
20260506212505 9 45 0.0 0.0 0.00 2.16 0.00 72 1009.3
20260506211505 9 157 0.0 0.0 0.00 2.16 0.00 72 1009.1
20260506210505 9 90 0.0 0.0 0.00 2.16 0.00 72 1008.9
20260506205505 9 45 0.0 0.0 0.00 2.16 0.00 72 1008.9
20260506204505 10 67 0.0 0.0 0.00 2.16 0.00 72 1008.8
20260506203505 10 67 0.0 0.0 0.00 2.16 0.00 72 1008.5
20260506202505 10 67 0.0 0.0 0.00 2.16 0.00 72 1008.6
20260506201505 10 90 0.0 0.0 0.00 2.16 0.00 72 1008.5
20260506200505 10 90 0.0 0.0 0.00 2.16 0.00 72 1008.5
20260506195505 10 67 0.0 0.0 0.00 2.16 0.00 72 1008.2
20260506194505 10 67 0.0 0.0 0.00 2.16 0.00 72 1008.2
20260506193505 10 67 0.0 0.0 0.00 2.16 0.00 72 1008.1
20260506192505 10 90 0.0 0.0 0.00 2.16 0.00 72 1008.0
20260506191505 10 67 0.0 0.0 0.00 2.16 0.00 72 1007.9
20260506190505 10 22 0.0 0.0 0.00 2.16 0.00 72 1008.1
20260506185505 10 22 0.0 0.0 0.00 2.16 0.00 72 1008.1
20260506184505 10 202 0.0 0.0 0.00 2.16 0.00 72 1007.7
20260506183505 10 112 0.0 0.0 0.00 2.16 0.00 72 1007.7
20260506182505 10 67 0.0 0.0 0.00 2.16 0.00 72 1007.5
20260506181505 10 67 0.0 0.0 0.00 2.16 0.00 72 1007.4
20260506180505 10 67 0.0 0.0 0.00 2.16 0.00 72 1007.4
20260506175505 10 67 0.0 0.0 0.00 2.16 0.00 72 1007.3
20260506174505 10 90 0.0 0.0 0.00 2.16 0.00 72 1007.4
20260506173505 10 90 0.0 0.0 0.00 2.16 0.00 72 1007.6
20260506172505 10 90 0.0 0.0 0.00 2.16 0.00 72 1007.3
20260506171505 10 225 0.0 0.0 0.00 2.16 0.00 72 1007.4
20260506170505 11 225 0.0 0.0 0.00 2.16 0.00 72 1007.5
20260506165505 10 67 0.0 0.0 0.00 2.16 0.00 72 1007.3
20260506164505 10 67 0.0 0.0 0.00 2.16 0.00 72 1007.2
20260506163505 10 67 0.0 0.0 0.00 2.16 0.00 72 1007.3
20260506162505 10 67 0.0 0.0 0.00 2.16 0.00 72 1007.3
20260506161505 10 90 0.0 0.0 0.00 2.16 0.00 72 1007.3
20260506160505 10 67 0.0 0.0 0.00 2.16 0.00 72 1007.4
20260506155505 11 270 0.0 0.0 0.00 2.16 0.00 72 1007.5
20260506154505 11 270 0.0 0.0 0.00 2.16 0.00 72 1007.3
20260506153505 11 67 0.0 0.0 0.00 2.16 0.00 72 1007.2
20260506152505 11 90 0.0 0.0 0.00 2.16 0.00 72 1007.3
20260506151505 11 45 0.0 0.0 0.00 2.16 0.00 72 1007.3
20260506150855 11 45 0.0 0.0 0.00 2.16 0.00 71 1007.1
20260506150758 11 45 0.0 0.0 0.00 2.16 0.00 71 1007.1
20260506150505 11 45 0.0 0.0 0.00 2.16 0.00 71 1007.1
20260506145505 11 22 0.0 0.0 0.00 2.16 0.00 71 1007.1
20260506144505 11 67 0.0 0.0 0.00 2.16 0.00 71 1007.1
20260506143505 11 292 0.0 0.0 0.00 2.16 0.00 72 1007.0
20260506142505 11 45 0.0 0.0 0.00 2.16 0.00 72 1007.1
20260506141505 11 67 0.0 0.0 0.00 2.16 0.00 71 1007.1
20260506140505 11 112 0.0 0.0 0.00 2.16 0.00 71 1007.2
20260506135505 11 112 0.0 0.0 0.00 2.16 0.00 72 1007.1
20260506134505 11 45 0.0 0.0 0.00 2.16 0.00 71 1007.0
20260506133505 11 67 0.0 0.0 0.00 2.16 0.00 71 1007.0
20260506132505 11 90 0.0 0.0 0.00 2.16 0.00 71 1006.7
20260506131505 11 337 0.0 0.0 0.00 2.16 0.00 71 1006.9
20260506125505 11 45 0.0 0.0 0.00 2.16 0.00 71 1006.8
20260506124505 11 22 0.0 0.0 0.00 2.16 0.00 71 1006.8
20260506123505 11 67 0.0 0.0 0.05 2.16 0.00 71 1006.9
20260506122505 11 45 0.0 0.0 0.10 2.16 0.00 71 1006.8
20260506121505 11 90 0.0 0.0 0.10 2.16 0.00 71 1006.8
20260506120505 11 157 0.0 0.0 0.10 2.16 0.00 71 1006.7
20260506115505 11 292 0.0 0.0 0.10 2.16 0.00 71 1006.6
20260506114505 11 315 0.0 0.0 0.15 2.16 0.00 71 1006.4
20260506113505 11 112 0.0 0.0 0.10 2.11 0.00 71 1006.2
20260506112505 11 112 0.0 0.0 0.05 2.06 0.00 71 1006.1
20260506111505 11 45 0.0 0.0 0.15 2.06 0.00 71 1006.1
20260506110505 11 67 0.0 0.0 0.15 2.06 0.00 71 1006.2
20260506105505 11 292 0.0 0.0 0.15 2.06 0.00 71 1005.9
20260506104505 11 112 0.0 0.0 0.10 2.01 0.00 70 1005.8
20260506103505 11 112 0.0 0.0 0.10 2.01 0.00 70 1005.7
20260506102506 11 67 0.0 0.0 0.05 1.91 0.00 70 1005.8
20260506101506 11 22 0.0 0.0 0.10 1.91 0.00 70 1005.6
20260506100506 10 22 0.0 0.0 0.20 1.91 0.00 70 1005.5
20260506095506 10 45 0.0 0.0 0.25 1.91 0.00 70 1005.4
20260506094506 10 112 0.0 0.0 0.30 1.91 0.00 70 1005.4
20260506093506 10 67 0.0 0.0 0.46 1.91 0.00 70 1005.2
20260506092506 10 270 0.0 0.0 0.36 1.80 0.00 71 1005.0
20260506091506 10 112 0.0 0.0 0.41 1.80 0.00 71 1005.0
20260506090506 10 292 0.0 0.0 0.30 1.70 0.00 71 1005.0
20260506085506 10 337 0.0 0.0 0.25 1.65 0.00 71 1005.0
20260506084506 10 45 0.0 0.0 0.25 1.55 0.00 71 1005.2
20260506083506 10 225 0.0 0.0 0.20 1.45 0.00 71 1005.1
20260506082506 10 225 0.0 0.0 0.25 1.45 0.00 71 1005.1
20260506081506 10 45 0.0 0.0 0.20 1.40 0.00 71 1005.0
20260506080506 10 67 0.0 0.0 0.20 1.40 0.00 71 1005.0
20260506073506 10 112 0.0 0.0 0.15 1.22 0.00 71 1004.7
20260506072506 10 22 0.0 0.0 0.10 1.17 0.00 71 1004.8
20260506071506 10 135 0.0 0.0 0.10 1.17 0.00 71 1004.8
20260506070506 10 90 0.0 0.0 0.10 1.17 0.00 71 1004.6
20260506062507 10 45 0.0 0.0 0.10 1.07 0.00 71 1004.8
20260506061506 10 67 0.0 0.0 0.15 1.07 0.00 71 1004.8